DW8097 Weather Reports


Display with metric or nautical units.
time (UTC)temp
F
wind
direction
speed
MPH
gust
MPH
rain 1hr
in
rain 24hr
in
rain mn
in
humidity
%
barometer
mb
20260505124545 43 307 5.0 8.0 0.00 0.00 0.00 49 1008.4
20260505123040 42 309 3.0 7.0 0.00 0.00 0.00 52 1008.4
20260505121537 42 310 3.0 7.0 0.00 0.00 0.00 53 1008.1
20260505120038 42 295 1.0 4.0 0.00 0.00 0.00 55 1007.9
20260505114532 40 317 4.0 7.0 0.00 0.00 0.00 56 1007.6
20260505113029 40 301 2.0 5.0 0.00 0.00 0.00 57 1007.1
20260505111525 39 281 2.0 5.0 0.00 0.00 0.00 59 1006.9
20260505101548 40 317 2.0 6.0 0.00 0.00 0.00 59 1006.3
20260505100051 40 316 2.0 9.0 0.00 0.00 0.00 59 1006.2
20260505094514 41 281 1.0 3.0 0.00 0.00 0.00 57 1006.1
20260505093022 41 313 2.0 5.0 0.00 0.00 0.00 57 1006.0
20260505091546 42 268 2.0 5.0 0.00 0.00 0.00 56 1005.8
20260505090040 42 327 1.0 5.0 0.00 0.00 0.00 56 1005.5
20260505084635 41 274 2.0 4.0 0.00 0.00 0.00 56 1005.3
20260505083033 42 313 1.0 4.0 0.00 0.00 0.00 56 1005.1
20260505081535 42 294 0.0 3.0 0.00 0.00 0.00 56 1004.8
20260505080028 42 294 1.0 5.0 0.00 0.00 0.00 58 1004.8
20260505074525 42 279 1.0 4.0 0.00 0.00 0.00 57 1004.7
20260505073023 42 248 1.0 3.0 0.00 0.00 0.00 56 1004.7
20260505071521 42 303 2.0 4.0 0.00 0.00 0.00 55 1004.7
20260505070019 43 279 4.0 7.0 0.00 0.00 0.00 53 1004.7
20260505064515 44 282 4.0 7.0 0.00 0.00 0.00 52 1004.7
20260505063017 43 258 3.0 7.0 0.00 0.00 0.00 52 1004.8
20260505061512 44 273 3.0 7.0 0.00 0.00 0.00 51 1004.8
20260505060010 44 305 3.0 6.0 0.00 0.00 0.00 50 1004.7
20260505054537 45 263 3.0 7.0 0.00 0.00 0.00 50 1004.8
20260505053042 45 263 2.0 6.0 0.00 0.00 0.00 49 1004.8
20260505051554 45 273 3.0 5.0 0.00 0.00 0.00 48 1004.6
20260505041527 47 284 2.0 6.0 0.00 0.00 0.00 45 1004.5
20260505040025 47 314 2.0 4.0 0.00 0.00 0.00 45 1004.4
20260505034520 47 318 3.0 8.0 0.00 0.00 0.00 43 1004.4
20260505033018 48 327 5.0 12.0 0.00 0.00 0.00 42 1004.4
20260505031516 48 5 5.0 11.0 0.00 0.00 0.00 43 1004.4
20260505030011 49 21 9.0 17.0 0.00 0.00 0.00 42 1004.2
20260505024510 49 355 10.0 17.0 0.00 0.00 0.00 43 1003.9
20260505023003 50 52 10.0 18.0 0.00 0.00 0.00 41 1003.4
20260505021558 51 5 9.0 16.0 0.00 0.00 0.00 41 1003.0
20260505020103 51 325 3.0 14.0 0.00 0.00 0.00 40 1002.6
20260505014554 52 338 4.0 9.0 0.00 0.00 0.00 40 1002.3
20260505013100 52 322 7.0 13.0 0.00 0.00 0.00 39 1002.1
20260505011548 53 344 9.0 17.0 0.00 0.00 0.00 38 1001.7
20260505010048 54 332 7.0 14.0 0.00 0.00 0.00 39 1001.5
20260505004538 54 327 6.0 16.0 0.00 0.00 0.00 39 1001.3
20260505003035 55 330 11.0 22.0 0.00 0.00 0.00 40 1001.1
20260505001533 56 305 12.0 21.0 0.00 0.00 0.00 38 1000.7
20260505000026 57 293 4.0 19.0 0.00 0.00 0.00 38 1000.5
20260504234524 57 355 9.0 24.0 0.00 0.00 0.00 38 1000.2
20260504233020 58 311 8.0 21.0 0.00 0.00 0.00 36 1000.1
20260504231516 59 59 11.0 24.0 0.00 0.00 0.00 34 999.7
20260504230053 60 355 9.0 20.0 0.00 0.00 0.00 36 999.5
20260504224541 61 360 12.0 22.0 0.00 0.00 0.00 33 999.2
20260504223008 62 342 8.0 18.0 0.00 0.00 0.00 32 999.0
20260504221505 63 342 8.0 19.0 0.00 0.00 0.00 31 998.6
20260504220035 63 284 9.0 20.0 0.00 0.00 0.00 32 998.3
20260504214533 64 284 11.0 17.0 0.00 0.00 0.00 32 998.2
20260504213030 63 302 10.0 17.0 0.00 0.00 0.00 31 998.1
20260504211529 64 329 9.0 17.0 0.00 0.00 0.00 33 997.9
20260504210034 63 333 8.0 15.0 0.00 0.00 0.00 34 998.0
20260504204527 63 315 7.0 17.0 0.00 0.00 0.00 29 997.9
20260504203034 62 329 8.0 21.0 0.00 0.00 0.00 28 997.8
20260504201522 63 334 11.0 19.0 0.00 0.00 0.00 27 997.9
20260504200019 64 324 10.0 22.0 0.00 0.00 0.00 26 997.7
20260504194517 65 245 7.0 22.0 0.00 0.00 0.00 28 997.5
20260504193017 66 279 9.0 21.0 0.00 0.00 0.00 26 997.4
20260504191521 68 292 9.0 20.0 0.00 0.00 0.00 27 997.0
20260504190009 67 289 6.0 23.0 0.00 0.00 0.00 26 996.8
20260504184507 66 342 8.0 18.0 0.00 0.00 0.00 27 996.6
20260504183004 66 11 9.0 21.0 0.00 0.00 0.00 29 996.5
20260504181504 66 36 8.0 20.0 0.00 0.00 0.00 27 996.5
20260504180006 67 324 8.0 15.0 0.00 0.00 0.00 27 996.3
20260504174502 66 260 7.0 16.0 0.00 0.00 0.00 28 996.0
20260504173101 68 35 6.0 13.0 0.00 0.00 0.00 30 996.2
20260504171556 65 248 4.0 16.0 0.00 0.00 0.00 34 996.2